Showing default

OPS 9321 (IDSCS 8), 2645

Orbit data source: Space-Track

OPS 9321 (IDSCS 8), 2645 is a payload satellite owned by USAF SSD (US) in GEO that was launched on Wed, 18 Jan 1967 UTC via a TITAN IIIC launch vehicle from the Air Force Eastern Test Range (AFETR). Payload-class satellites include a variety of spacecraft equipped with specific instruments for various scientific and technological missions. These include communications satellites like Starlink; space stations such as the ISS; scientific satellites like the Hubble; Earth observation satellites from companies like Planet Labs, Umbra, and HawkEye 360; GPS; miniature CubeSats for education and research; and military/defense satellites.

Not visible in the next 10 days
Identifier
2645, 1967-003A
Orbit
GEO
Country
Flag of USUS
Related business
Manufacturer
Philco-Ford WDL
Mission
Non-operational spacecraft
Bus & Motor
IDCSP, Unknown motor
Mass
45 kg wet, 45 kg dry
Launch date (UTC)
1967-01-18 (59 years ago)
Launch vehicle
TITAN IIIC
Launch site
Air Force Eastern Test Range (AFETR)
Object type
Payload
Rocket body
Debris
Shape & HBR
Unknown
Radar Cross Section
Medium (>0.1 m² and <1 m²)

Expand to show TLE details & history
Last TLE update: 1 day ago

TLE from 1 day ago
0 OPS 9321 (IDSCS 8)
1 02645U 67003A   25301.10729596 -.00000068  00000-0  00000-0 0  9998
2 02645   7.9132  46.6864 0035456 120.0839 227.6400  1.08316760231932
Epoch: 2025-10-28T02:34Z
TLE epoch observation values (Epoch: 2025-10-28T02:34:30.370Z)
Latitude
-1.71137°
Longitude
-41.1289°
Altitude
33,768.171 km
Speed
3.147 km/s
True Right ascension
02h 16m 47s
True Declination
-1° 42' 34"
Sunlit
Object was in daylight at epoch
Visualization orbit readout
Latitude
Unknown
Longitude
Unknown
Altitude
Unknown
Speed
Unknown
Apparent Right ascension
Unknown
Apparent Declination
Unknown
Sunlit
N/A
Visualization observer readout
Local Sidereal Time
10:05:41
Azimuth
Unknown
Elevation
Unknown
Doppler factor
Unknown
Orbital elements
Apogee altitude
33,815.166 km
Perigee altitude
33,531.154 km
Semi-major axis
40,051.297 km
Eccentricity
0.00355
Inclination
7.9132°
RAAN
46.6864°
Arg. of periapsis
120.0839°
True anomaly
227.34067°
Mean anomaly
227.64°
Eccentric anomaly
227.49025°
Mean motion
0.27078 °/min
Orbital period
1,329.49 mins
BSTAR
0
Loading maneuver chart data...
Computing Atmospheric mass density...
Loading historical data...
Loading historical data...
Loading historical data...
Loading historical data...
Loading historical data...
Loading historical data...
Loading historical data...

Documentation

Showing up to 5 results
|